DW2213 Weather Reports


time (UTC)temp
C
wind
direction
speed
KPH
gust
KPH
rain 1hr
cm
rain 24hr
cm
rain mn
cm
humidity
%
barometer
mb
20260902092305 28 142 0.0 8.0 0.00 0.00 0.00 76 1016.1
20260902091804 28 136 0.0 3.2 0.00 0.00 0.00 76 1016.1
20260902091304 28 142 0.0 3.2 0.00 0.00 0.00 76 1016.1
20260902090805 28 145 0.0 0.0 0.00 0.00 0.00 76 1016.0
20260902090304 28 145 0.0 0.0 0.00 0.00 0.00 75 1016.0
20260902085804 28 145 1.6 4.8 0.00 0.00 0.00 75 1016.0
20260902085306 28 143 0.0 1.6 0.00 0.00 0.00 75 1016.0
20260902084805 28 149 1.6 3.2 0.00 0.00 0.00 76 1016.0
20260902084304 28 159 0.0 4.8 0.00 0.00 0.00 76 1015.9
20260902083804 27 209 0.0 0.0 0.00 0.00 0.00 76 1015.8
20260902083304 27 284 0.0 0.0 0.00 0.00 0.00 76 1015.6
20260902082805 27 284 0.0 0.0 0.00 0.00 0.00 77 1015.6
20260902081804 27 284 0.0 0.0 0.00 0.00 0.00 79 1015.5
20260902081304 26 284 0.0 0.0 0.00 0.00 0.00 79 1015.4
20260902080805 26 284 0.0 0.0 0.00 0.00 0.00 80 1015.3
20260902080304 26 284 0.0 0.0 0.00 0.00 0.00 80 1015.3
20260902075804 26 284 0.0 0.0 0.00 0.00 0.00 79 1015.3
20260902075306 26 284 0.0 0.0 0.00 0.00 0.00 79 1015.3
20260902074805 26 284 0.0 0.0 0.00 0.00 0.00 79 1015.3
20260902074305 26 284 0.0 0.0 0.00 0.00 0.00 79 1015.3
20260902073804 26 284 0.0 3.2 0.00 0.00 0.00 80 1015.3
20260902072805 25 286 0.0 1.6 0.00 0.00 0.00 81 1015.3
20260902072309 25 286 0.0 1.6 0.00 0.00 0.00 82 1015.2
20260902071805 25 286 0.0 1.6 0.00 0.00 0.00 83 1015.1
20260902071304 25 287 0.0 0.0 0.00 0.00 0.00 83 1015.1
20260902070804 24 286 0.0 1.6 0.00 0.00 0.00 84 1015.0
20260902070304 24 290 0.0 0.0 0.00 0.00 0.00 84 1014.9
20260902065804 24 290 0.0 0.0 0.00 0.00 0.00 85 1014.9
20260902065306 23 291 0.0 1.6 0.00 0.00 0.00 85 1014.8
20260902064804 23 292 0.0 0.0 0.00 0.00 0.00 85 1014.8
20260902064304 23 292 0.0 0.0 0.00 0.00 0.00 86 1014.8
20260902063804 23 292 0.0 0.0 0.00 0.00 0.00 86 1014.7
20260902062804 23 291 0.0 0.0 0.00 0.00 0.00 87 1014.5
20260902062306 23 291 0.0 0.0 0.00 0.00 0.00 87 1014.6
20260902061804 23 291 0.0 0.0 0.00 0.00 0.00 87 1014.5
20260902061304 23 291 0.0 0.0 0.00 0.00 0.00 87 1014.4
20260902055307 23 291 0.0 0.0 0.00 0.00 0.00 87 1014.4
20260902054804 23 291 0.0 0.0 0.00 0.00 0.00 87 1014.3
20260902054304 23 291 0.0 0.0 0.00 0.00 0.00 87 1014.4
20260902053304 22 291 0.0 0.0 0.00 0.00 0.00 87 1014.4
20260902052804 22 291 0.0 0.0 0.00 0.00 0.00 87 1014.3
20260902052306 22 291 0.0 0.0 0.00 0.00 0.00 88 1014.3
20260902051305 22 292 0.0 0.0 0.00 0.00 0.00 88 1014.2
20260902045804 22 100 0.0 0.0 0.00 0.00 0.00 89 1014.0
20260902045306 22 100 0.0 0.0 0.00 0.00 0.00 89 1014.0
20260902044805 22 100 0.0 0.0 0.00 0.00 0.00 89 1013.9
20260902043804 23 100 0.0 0.0 0.00 0.00 0.00 90 1013.9
20260902043305 23 100 0.0 0.0 0.00 0.00 0.00 90 1013.9
20260902042804 23 100 0.0 0.0 0.00 0.00 0.00 90 1013.9
20260902042308 23 100 0.0 0.0 0.00 0.00 0.00 90 1013.8
20260902041804 23 100 0.0 0.0 0.00 0.00 0.00 90 1013.9
20260902041304 23 100 0.0 0.0 0.00 0.00 0.00 90 1013.8
20260902040805 23 100 0.0 0.0 0.00 0.00 0.00 90 1013.9
20260902040305 23 100 0.0 0.0 0.00 0.00 0.00 90 1013.9
20260902035804 23 100 0.0 0.0 0.00 0.00 0.00 90 1013.9
20260902035305 23 100 0.0 0.0 0.00 0.00 0.00 90 1013.9
20260902034804 23 100 0.0 0.0 0.00 0.00 0.00 90 1013.9
20260902034304 23 100 0.0 0.0 0.00 0.00 0.00 90 1013.8
20260902033304 23 100 0.0 0.0 0.00 0.00 0.00 90 1013.9
20260902032805 23 100 0.0 0.0 0.00 0.00 0.00 90 1014.0
20260902032306 23 100 0.0 0.0 0.00 0.00 0.00 90 1014.0
20260902031804 23 100 0.0 0.0 0.00 0.00 0.00 90 1014.0
20260902031305 23 100 0.0 0.0 0.00 0.00 0.00 90 1014.1
20260902030804 23 100 0.0 0.0 0.00 0.00 0.00 90 1014.1
20260902030304 23 100 0.0 0.0 0.00 0.00 0.00 90 1014.1
20260902025804 23 100 0.0 0.0 0.00 0.00 0.00 90 1014.2
20260902025306 24 100 0.0 0.0 0.00 0.00 0.00 90 1014.1
20260902024804 24 100 0.0 0.0 0.00 0.00 0.00 90 1014.1
20260902024304 24 100 0.0 0.0 0.00 0.00 0.00 90 1014.1
20260902023804 24 100 0.0 0.0 0.00 0.00 0.00 90 1014.2
20260902023304 24 100 0.0 0.0 0.00 0.00 0.00 90 1014.2
20260902022306 24 100 0.0 0.0 0.00 0.00 0.00 90 1014.1
20260902021304 24 100 0.0 0.0 0.00 0.00 0.00 90 1014.2
20260902020804 24 100 0.0 0.0 0.00 0.00 0.00 90 1014.1
20260902020304 24 100 0.0 0.0 0.00 0.00 0.00 90 1014.0
20260902015804 24 100 0.0 0.0 0.00 0.00 0.00 90 1014.1
20260902015306 24 100 0.0 0.0 0.00 0.00 0.00 90 1014.2
20260902014804 24 100 0.0 0.0 0.00 0.00 0.00 90 1014.3
20260902014304 24 100 0.0 0.0 0.00 0.00 0.00 90 1014.4
20260902013804 24 100 0.0 0.0 0.00 0.00 0.00 90 1014.3
20260902013304 24 100 0.0 0.0 0.00 0.00 0.00 89 1014.3
20260902012804 24 100 0.0 0.0 0.00 0.00 0.00 89 1014.4
20260902012309 24 99 0.0 0.0 0.00 0.00 0.00 89 1014.4
20260902011305 24 100 0.0 0.0 0.00 0.00 0.00 89 1014.5
20260902010804 24 100 0.0 0.0 0.00 0.00 0.00 89 1014.5
20260902010304 24 99 0.0 0.0 0.00 0.00 0.00 89 1014.5
20260902004804 24 144 0.0 0.0 0.00 0.00 0.00 89 1014.4
20260902004304 24 144 0.0 0.0 0.00 0.00 0.00 89 1014.5
20260902003805 24 144 0.0 0.0 0.00 0.00 0.00 89 1014.6
20260902003304 24 144 0.0 0.0 0.00 0.00 0.00 89 1014.6
20260902002804 24 144 0.0 0.0 0.00 0.00 0.00 89 1014.5
20260902002306 24 144 0.0 1.6 0.00 0.00 0.00 90 1014.5
20260902001804 24 144 0.0 1.6 0.00 0.00 0.00 90 1014.6
20260902001304 24 143 0.0 0.0 0.00 0.00 0.00 90 1014.6
20260902000804 24 143 0.0 0.0 0.00 0.00 0.00 89 1014.7
20260901235804 24 143 0.0 0.0 0.00 0.00 0.00 89 1014.6
20260901235307 24 143 0.0 0.0 0.00 0.00 0.00 89 1014.6
20260901234804 24 143 0.0 0.0 0.00 0.00 0.00 89 1014.5
20260901234304 24 143 0.0 0.0 0.00 0.00 0.00 89 1014.5
20260901233804 24 143 0.0 0.0 0.00 0.00 0.00 89 1014.6
20260901233304 24 143 0.0 0.0 0.00 0.00 0.00 89 1014.6
20260901232804 24 143 0.0 0.0 0.00 0.00 0.00 89 1014.5
20260901232306 24 143 0.0 0.0 0.00 0.00 0.00 89 1014.5
20260901231804 25 143 0.0 0.0 0.00 0.00 0.00 88 1014.5
20260901231304 25 142 0.0 0.0 0.00 0.00 0.00 88 1014.5
20260901230804 25 142 0.0 0.0 0.00 0.00 0.00 88 1014.4
20260901230304 25 142 0.0 0.0 0.00 0.00 0.00 88 1014.4
20260901225804 25 142 0.0 0.0 0.00 0.00 0.00 88 1014.4
20260901225306 25 142 0.0 0.0 0.00 0.00 0.00 88 1014.5
20260901224804 25 142 0.0 0.0 0.00 0.00 0.00 88 1014.5
20260901224304 25 142 0.0 0.0 0.00 0.00 0.00 88 1014.4
20260901223804 25 142 0.0 0.0 0.00 0.00 0.00 88 1014.5
20260901223304 25 142 0.0 0.0 0.00 0.00 0.00 88 1014.4
20260901222306 25 142 0.0 0.0 0.00 0.00 0.00 87 1014.4
20260901221304 25 142 0.0 0.0 0.00 0.00 0.00 87 1014.4
20260901220816 25 142 0.0 0.0 0.00 0.00 0.00 87 1014.3
20260901220305 25 142 0.0 0.0 0.00 0.00 0.00 86 1014.4
20260901215804 26 142 0.0 0.0 0.00 0.00 0.00 86 1014.3
20260901215306 26 142 0.0 0.0 0.00 0.00 0.00 86 1014.3
20260901214304 26 142 0.0 0.0 0.00 0.00 0.00 85 1014.3
20260901213804 26 142 0.0 0.0 0.00 0.00 0.00 85 1014.3
20260901213304 26 142 0.0 0.0 0.00 0.00 0.00 85 1014.3
20260901212804 26 142 0.0 0.0 0.00 0.00 0.00 85 1014.4
20260901212306 26 142 0.0 0.0 0.00 0.00 0.00 85 1014.4
20260901211304 26 142 0.0 0.0 0.00 0.00 0.00 85 1014.4
20260901210804 26 142 0.0 0.0 0.00 0.00 0.00 85 1014.4
20260901210304 26 142 0.0 0.0 0.00 0.00 0.00 84 1014.3
20260901205804 26 142 0.0 0.0 0.00 0.00 0.00 84 1014.2
20260901205306 26 142 0.0 0.0 0.00 0.00 0.00 84 1014.2
20260901204804 26 142 0.0 0.0 0.00 0.00 0.00 84 1014.2
20260901204304 26 142 0.0 0.0 0.00 0.00 0.00 84 1014.2
20260901203804 26 142 0.0 0.0 0.00 0.00 0.00 84 1014.2
20260901203304 26 142 0.0 0.0 0.00 0.00 0.00 84 1014.0
20260901202804 26 142 0.0 0.0 0.00 0.00 0.00 84 1014.0
20260901201804 26 142 0.0 0.0 0.00 0.00 0.00 83 1014.0
20260901201304 26 142 0.0 0.0 0.00 0.00 0.00 83 1014.0
20260901200804 26 142 0.0 0.0 0.00 0.00 0.00 83 1013.9
20260901200304 26 142 0.0 0.0 0.00 0.00 0.00 83 1013.8
20260901195804 26 142 0.0 0.0 0.00 0.00 0.00 83 1013.7
20260901195306 26 142 0.0 0.0 0.00 0.00 0.00 82 1013.7
20260901194804 26 142 0.0 0.0 0.00 0.00 0.00 82 1013.5
20260901194304 26 142 0.0 0.0 0.00 0.00 0.00 82 1013.3
20260901193804 26 142 0.0 0.0 0.00 0.00 0.00 82 1013.5
20260901193304 26 142 0.0 0.0 0.00 0.00 0.00 82 1013.5
20260901192804 26 142 0.0 0.0 0.00 0.00 0.00 82 1013.4
20260901192306 26 142 0.0 0.0 0.00 0.00 0.00 82 1013.3
20260901191803 26 142 0.0 0.0 0.00 0.00 0.00 81 1013.2
20260901191304 27 142 0.0 0.0 0.00 0.00 0.00 81 1013.1
20260901190304 27 142 0.0 0.0 0.00 0.00 0.00 80 1012.9
20260901185804 27 142 0.0 0.0 0.00 0.00 0.00 80 1012.8
20260901185306 27 142 0.0 0.0 0.00 0.00 0.00 80 1012.8
20260901184804 27 142 0.0 0.0 0.00 0.00 0.00 80 1012.8
20260901184304 27 142 0.0 0.0 0.00 0.00 0.00 80 1012.7
20260901183803 27 142 0.0 0.0 0.00 0.00 0.00 80 1012.6
20260901183304 27 142 0.0 0.0 0.00 0.00 0.00 80 1012.6
20260901182305 27 142 0.0 8.0 0.00 0.00 0.00 79 1012.5
20260901181803 27 150 0.0 3.2 0.00 0.00 0.00 79 1012.5
20260901181304 27 150 0.0 1.6 0.00 0.00 0.00 79 1012.7
20260901180803 27 150 0.0 3.2 0.00 0.00 0.00 78 1012.7
20260901180304 27 148 1.6 8.0 0.00 0.00 0.00 78 1012.7
20260901175804 27 138 1.6 3.2 0.00 0.00 0.00 78 1012.6
20260901175305 27 137 1.6 4.8 0.00 0.00 0.00 77 1012.7
20260901174804 27 140 0.0 3.2 0.00 0.00 0.00 77 1012.7
20260901174303 28 137 0.0 3.2 0.00 0.00 0.00 76 1012.8
20260901173804 28 136 1.6 8.0 0.00 0.00 0.00 76 1012.8
20260901172803 28 132 1.6 8.0 0.00 0.00 0.00 75 1012.8
20260901171803 28 143 1.6 4.8 0.00 0.00 0.00 74 1012.7
20260901171304 28 142 1.6 4.8 0.00 0.00 0.00 73 1012.7
20260901170804 28 140 1.6 8.0 0.00 0.00 0.00 73 1012.7
20260901170305 28 139 0.0 4.8 0.00 0.00 0.00 72 1012.6
20260901165306 29 129 0.0 3.2 0.00 0.00 0.00 71 1012.7
20260901164805 29 154 1.6 4.8 0.00 0.00 0.00 71 1012.6
20260901164305 29 125 1.6 8.0 0.00 0.00 0.00 71 1012.7
20260901163305 29 138 0.0 8.0 0.00 0.00 0.00 71 1012.6
20260901162306 29 126 0.0 3.2 0.00 0.00 0.00 72 1012.7
20260901161805 28 129 0.0 3.2 0.00 0.00 0.00 73 1012.7
20260901161305 28 127 0.0 4.8 0.00 0.00 0.00 74 1012.7
20260901160805 28 123 1.6 4.8 0.00 0.00 0.00 73 1012.7
20260901160306 28 122 1.6 4.8 0.00 0.00 0.00 75 1012.9
20260901155805 28 140 0.0 8.0 0.00 0.00 0.00 77 1012.9
20260901155306 28 139 1.6 4.8 0.00 0.00 0.00 78 1013.0
20260901154805 27 132 0.0 0.0 0.00 0.00 0.00 79 1012.9
20260901154304 27 133 1.6 8.0 0.00 0.00 0.00 79 1013.1
20260901153805 27 137 1.6 8.0 0.00 0.00 0.00 79 1012.1
20260901153305 27 145 1.6 12.9 0.00 0.00 0.00 79 1012.7
20260901152805 27 139 1.6 4.8 0.00 0.00 0.00 79 1012.4
20260901152306 27 145 0.0 0.0 0.00 0.00 0.00 78 1013.2
20260901151805 27 144 1.6 4.8 0.00 0.00 0.00 78 1013.8
20260901151305 27 120 0.0 0.0 0.00 0.00 0.00 76 1013.7
20260901150805 27 120 0.0 1.6 0.00 0.00 0.00 76 1013.2
20260901150305 28 158 1.6 3.2 0.00 0.00 0.00 75 1013.2
20260901145805 28 134 1.6 9.7 0.00 0.00 0.00 73 1013.1
20260901145306 28 150 3.2 9.7 0.00 0.00 0.00 71 1013.5
20260901144805 28 154 3.2 9.7 0.00 0.00 0.00 70 1013.9
20260901144304 28 155 1.6 9.7 0.00 0.00 0.00 70 1013.8
20260901143804 28 156 3.2 11.3 0.00 0.00 0.00 70 1013.5
20260901143305 28 151 1.6 4.8 0.00 0.00 0.00 71 1013.6
20260901142805 28 161 0.0 8.0 0.00 0.00 0.00 71 1013.5
20260901141305 29 124 1.6 9.7 0.00 0.00 0.00 65 1013.4
20260901140805 29 126 0.0 0.0 0.00 0.00 0.00 63 1014.0
20260901135804 30 127 0.0 4.8 0.00 0.00 0.00 60 1013.9
20260901135305 30 137 1.6 3.2 0.00 0.00 0.00 61 1014.0
20260901134805 30 156 0.0 0.0 0.00 0.00 0.00 61 1014.5
20260901134305 30 157 0.0 0.0 0.00 0.00 0.00 63 1014.5
20260901133805 30 157 0.0 0.0 0.00 0.00 0.00 62 1014.7
20260901132805 30 157 1.6 4.8 0.00 0.00 0.00 64 1014.8
20260901132307 30 153 0.0 4.8 0.00 0.00 0.00 63 1014.8
20260901131805 30 152 1.6 8.0 0.00 0.00 0.00 64 1014.9
20260901131305 30 145 0.0 4.8 0.00 0.00 0.00 67 1014.9
20260901130805 29 142 1.6 8.0 0.00 0.00 0.00 65 1014.9
20260901130304 29 136 0.0 4.8 0.00 0.00 0.00 67 1014.8
20260901125308 29 136 1.6 4.8 0.00 0.00 0.00 68 1014.3
20260901124804 30 115 0.0 4.8 0.00 0.00 0.00 65 1014.3
20260901124304 29 78 0.0 4.8 0.00 0.00 0.00 67 1014.4
20260901123805 29 138 0.0 3.2 0.00 0.00 0.00 66 1014.4
20260901123305 29 138 1.6 4.8 0.00 0.00 0.00 67 1014.5
20260901122805 30 135 1.6 8.0 0.00 0.00 0.00 66 1014.4
20260901122306 30 147 1.6 4.8 0.00 0.00 0.00 67 1014.2
20260901121305 30 134 1.6 8.0 0.00 0.00 0.00 65 1014.5
20260901120805 30 150 1.6 8.0 0.00 0.00 0.00 64 1014.5
20260901120305 30 121 1.6 8.0 0.00 0.00 0.00 64 1014.6
20260901115805 30 145 1.6 9.7 0.00 0.00 0.00 64 1014.8
20260901115306 30 147 3.2 9.7 0.00 0.00 0.00 64 1014.9
20260901114805 30 149 1.6 8.0 0.00 0.00 0.00 64 1014.9
20260901114305 30 124 1.6 8.0 0.00 0.00 0.00 66 1014.7
20260901113805 30 129 3.2 8.0 0.00 0.00 0.00 66 1014.9
20260901112804 30 118 0.0 3.2 0.00 0.00 0.00 66 1015.2
20260901112306 30 118 0.0 4.8 0.00 0.00 0.00 66 1015.1
20260901111804 29 107 0.0 3.2 0.00 0.00 0.00 66 1015.1
20260901110804 30 144 1.6 3.2 0.00 0.00 0.00 65 1015.3
20260901110304 30 100 0.0 4.8 0.00 0.00 0.00 65 1015.4
20260901105305 30 117 1.6 8.0 0.00 0.00 0.00 63 1015.1
20260901104804 31 113 1.6 11.3 0.00 0.00 0.00 64 1014.9
20260901104305 30 143 1.6 9.7 0.00 0.00 0.00 66 1015.1
20260901103804 30 136 1.6 4.8 0.00 0.00 0.00 65 1015.0
20260901103305 30 150 3.2 14.5 0.00 0.00 0.00 65 1015.1
20260901102805 30 144 1.6 14.5 0.00 0.00 0.00 66 1015.2
20260901102306 30 139 4.8 9.7 0.00 0.00 0.00 66 1015.4
20260901101805 30 139 0.0 0.0 0.00 0.00 0.00 66 1015.4
20260901101305 30 153 0.0 8.0 0.00 0.00 0.00 67 1015.4
20260901100804 30 133 1.6 9.7 0.00 0.00 0.00 67 1015.5
20260901100305 30 127 3.2 11.3 0.00 0.00 0.00 65 1015.5
20260901095306 30 101 0.0 9.7 0.00 0.00 0.00 65 1015.4
20260901094805 30 157 3.2 11.3 0.00 0.00 0.00 67 1015.4
20260901093804 30 138 1.6 8.0 0.00 0.00 0.00 67 1015.3